{"data":{"norad_id":53529,"epoch":"2026-05-25T03:36:02.317248Z","epoch_age_seconds":61979,"freshness":"FRESH","line1":"1 53529U 22101C   26145.15002682  .00019403  00000+0  10824-2 0  9995","line2":"2 53529  53.2145  88.8309 0002395  22.7130 337.3970 15.13588559207737","mean_motion":15.13588559,"eccentricity":0.0002395,"inclination_deg":53.2145,"raan_deg":88.8309,"arg_perigee_deg":22.713,"mean_anomaly_deg":337.397,"bstar":0.0010824,"rev_number":20773,"period_min":95.138139849008,"perigee_km":523.61353842635,"apogee_km":526.92026889621,"semimajor_km":6903.4039036613,"source":"CELESTRAK","updated_at":"2026-05-25T13:38:17.439498Z"}}